EN

Hourly Weather Budzislaw

Today, 16 April, Friday

Time Temperature Precipitation Wind Pressure Humidity
00:00 0°C° 0.1 mm 3 mps 742 mmHg 99%
01:00 0°C° 0.1 mm 3 mps 741 mmHg 99%
02:00 0°C° 0.1 mm 3 mps 741 mmHg 99%
03:00 0°C° 0.1 mm 3 mps 741 mmHg 99%
04:00 -1°C° 0.1 mm 4 mps 741 mmHg 99%
05:00 -1°C° 0.3 mm 4 mps 741 mmHg 99%
06:00 0°C° 0.3 mm 3 mps 741 mmHg 99%
07:00 +1°C° 0.3 mm 3 mps 741 mmHg 99%
08:00 0°C° 0.2 mm 4 mps 741 mmHg 99%
09:00 0°C° 0.2 mm 4 mps 741 mmHg 99%
10:00 0°C° 0.2 mm 4 mps 741 mmHg 98%
11:00 0°C° 0.5 mm 4 mps 741 mmHg 98%
12:00 0°C° 0.5 mm 4 mps 742 mmHg 98%
13:00 0°C° 0.5 mm 4 mps 742 mmHg 98%
14:00 0°C° 0.7 mm 4 mps 742 mmHg 98%
15:00 0°C° 0.7 mm 4 mps 742 mmHg 98%
16:00 0°C° 0.7 mm 4 mps 742 mmHg 98%
17:00 0°C° 1.4 mm 4 mps 742 mmHg 98%
18:00 0°C° 1.4 mm 4 mps 742 mmHg 99%
19:00 0°C° 1.4 mm 3 mps 742 mmHg 99%
20:00 0°C° 0.7 mm 3 mps 742 mmHg 99%
21:00 0°C° 0.7 mm 3 mps 742 mmHg 99%
22:00 0°C° 0.7 mm 3 mps 742 mmHg 99%
23:00 0°C° 0.1 mm 3 mps 742 mmHg 99%

Tomorrow, 17 April, Saturday

Time Temperature Precipitation Wind Pressure Humidity
00:00 +1°C° 0.1 mm 3 mps 742 mmHg 99%
01:00 +1°C° 0.1 mm 3 mps 742 mmHg 99%
02:00 +1°C° 0.1 mm 3 mps 742 mmHg 99%
03:00 +1°C° 0.1 mm 3 mps 742 mmHg 99%
04:00 +2°C° 0.1 mm 2 mps 742 mmHg 99%
05:00 +1°C° 0.4 mm 3 mps 742 mmHg 99%
06:00 +1°C° 0.4 mm 3 mps 742 mmHg 99%
07:00 +2°C° 0.4 mm 3 mps 742 mmHg 99%
08:00 +2°C° 0.2 mm 3 mps 742 mmHg 99%
09:00 +2°C° 0.2 mm 3 mps 742 mmHg 99%
10:00 +2°C° 0.2 mm 3 mps 742 mmHg 99%
11:00 +3°C° 0.1 mm 3 mps 742 mmHg 99%
12:00 +4°C° 0.1 mm 2 mps 742 mmHg 99%
13:00 +4°C° 0.1 mm 2 mps 742 mmHg 99%
14:00 +4°C° 0.1 mm 2 mps 743 mmHg 99%
15:00 +4°C° 0.1 mm 2 mps 743 mmHg 99%
16:00 +4°C° 0.1 mm 2 mps 743 mmHg 99%
17:00 +5°C° 0 mm 1 mps 743 mmHg 99%
18:00 +5°C° 0 mm 1 mps 743 mmHg 99%
19:00 +5°C° 0 mm 1 mps 743 mmHg 99%
20:00 +5°C° 0 mm 1 mps 743 mmHg 99%
21:00 +5°C° 0 mm 1 mps 743 mmHg 99%
22:00 +5°C° 0 mm 1 mps 743 mmHg 99%
23:00 +5°C° 0 mm 1 mps 743 mmHg 99%

Day after tomorrow, 18 April, Sunday

Time Temperature Precipitation Wind Pressure Humidity
00:00 +5°C° 0 mm 1 mps 743 mmHg 98%
01:00 +4°C° 0 mm 1 mps 743 mmHg 98%
02:00 +4°C° 0 mm 1 mps 743 mmHg 98%
03:00 +4°C° 0 mm 1 mps 743 mmHg 97%
04:00 +3°C° 0 mm 1 mps 743 mmHg 97%
05:00 +4°C° 0 mm 1 mps 743 mmHg 94%
06:00 +5°C° 0 mm 1 mps 743 mmHg 90%
07:00 +6°C° 0 mm 1 mps 743 mmHg 87%
08:00 +7°C° 0 mm 1 mps 743 mmHg 81%
09:00 +9°C° 0 mm 1 mps 743 mmHg 75%
10:00 +10°C° 0 mm 1 mps 743 mmHg 69%
11:00 +9°C° 0 mm 2 mps 743 mmHg 71%
12:00 +9°C° 0 mm 2 mps 743 mmHg 74%
13:00 +9°C° 0 mm 2 mps 743 mmHg 76%
14:00 +9°C° 0 mm 2 mps 743 mmHg 77%
15:00 +10°C° 0 mm 2 mps 742 mmHg 79%
16:00 +10°C° 0 mm 2 mps 742 mmHg 81%
17:00 +9°C° 0.1 mm 2 mps 742 mmHg 84%
18:00 +9°C° 0.1 mm 2 mps 742 mmHg 88%
19:00 +8°C° 0.1 mm 2 mps 742 mmHg 92%
20:00 +8°C° 0 mm 2 mps 742 mmHg 93%
21:00 +7°C° 0 mm 2 mps 742 mmHg 94%
22:00 +6°C° 0 mm 2 mps 742 mmHg 95%
23:00 +6°C° 0 mm 2 mps 742 mmHg 95%

19 April, Monday

Time Temperature Precipitation Wind Pressure Humidity
00:00 +6°C° 0 mm 2 mps 742 mmHg 95%
01:00 +6°C° 0 mm 2 mps 742 mmHg 95%
02:00 +5°C° 0.1 mm 3 mps 742 mmHg 96%
03:00 +5°C° 0.1 mm 3 mps 742 mmHg 96%
04:00 +5°C° 0.1 mm 3 mps 741 mmHg 96%
05:00 +7°C° 0 mm 3 mps 741 mmHg 93%
06:00 +6°C° 0 mm 4 mps 741 mmHg 90%
07:00 +6°C° 0 mm 4 mps 742 mmHg 87%
08:00 +7°C° 0 mm 5 mps 741 mmHg 79%
09:00 +9°C° 0 mm 5 mps 741 mmHg 70%
10:00 +10°C° 0 mm 5 mps 741 mmHg 61%
11:00 +10°C° 0 mm 5 mps 741 mmHg 60%
12:00 +10°C° 0 mm 5 mps 741 mmHg 58%
13:00 +11°C° 0 mm 4 mps 741 mmHg 57%
14:00 +10°C° 0 mm 4 mps 740 mmHg 61%
15:00 +10°C° 0 mm 3 mps 740 mmHg 66%
16:00 +9°C° 0 mm 3 mps 740 mmHg 71%
17:00 +9°C° 0.1 mm 2 mps 740 mmHg 75%
18:00 +8°C° 0.1 mm 2 mps 740 mmHg 78%
19:00 +8°C° 0.1 mm 2 mps 740 mmHg 82%
20:00 +7°C° 0.1 mm 2 mps 739 mmHg 85%
21:00 +7°C° 0.1 mm 2 mps 739 mmHg 87%
22:00 +6°C° 0.1 mm 2 mps 739 mmHg 90%
23:00 +6°C° 0 mm 2 mps 739 mmHg 92%

20 April, Tuesday

Time Temperature Precipitation Wind Pressure Humidity
00:00 +5°C° 0 mm 2 mps 739 mmHg 93%
01:00 +4°C° 0 mm 2 mps 738 mmHg 95%
02:00 +4°C° 0 mm 2 mps 738 mmHg 95%
03:00 +4°C° 0 mm 2 mps 738 mmHg 95%
04:00 +3°C° 0 mm 2 mps 738 mmHg 95%
05:00 +3°C° 0 mm 3 mps 738 mmHg 91%
06:00 +4°C° 0 mm 3 mps 738 mmHg 88%
07:00 +5°C° 0 mm 3 mps 738 mmHg 84%
08:00 +6°C° 0.1 mm 4 mps 737 mmHg 79%
09:00 +7°C° 0.1 mm 4 mps 737 mmHg 73%
10:00 +8°C° 0.1 mm 5 mps 737 mmHg 67%
11:00 +9°C° 0.2 mm 5 mps 737 mmHg 65%
12:00 +9°C° 0.2 mm 5 mps 736 mmHg 62%
13:00 +10°C° 0.2 mm 5 mps 736 mmHg 60%
14:00 +10°C° 0.2 mm 5 mps 736 mmHg 61%
15:00 +10°C° 0.2 mm 5 mps 736 mmHg 62%
16:00 +10°C° 0.2 mm 5 mps 735 mmHg 62%
17:00 +8°C° 0.1 mm 4 mps 735 mmHg 69%
18:00 +8°C° 0.1 mm 3 mps 735 mmHg 75%
19:00 +7°C° 0.1 mm 2 mps 735 mmHg 82%
20:00 +6°C° 0 mm 2 mps 735 mmHg 85%
21:00 +6°C° 0 mm 2 mps 735 mmHg 88%
22:00 +5°C° 0 mm 2 mps 735 mmHg 91%
23:00 +5°C° 0 mm 2 mps 735 mmHg 92%

21 April, Wednesday

Time Temperature Precipitation Wind Pressure Humidity
00:00 +4°C° 0 mm 3 mps 735 mmHg 93%
01:00 +3°C° 0 mm 3 mps 735 mmHg 94%
02:00 +3°C° 0 mm 3 mps 735 mmHg 94%
03:00 +3°C° 0 mm 3 mps 735 mmHg 94%
04:00 +2°C° 0 mm 3 mps 735 mmHg 95%
05:00 +3°C° 0 mm 3 mps 735 mmHg 91%
06:00 +4°C° 0 mm 4 mps 735 mmHg 88%
07:00 +5°C° 0 mm 5 mps 736 mmHg 85%
08:00 +6°C° 0 mm 5 mps 736 mmHg 77%
09:00 +7°C° 0 mm 6 mps 736 mmHg 68%
10:00 +8°C° 0 mm 6 mps 736 mmHg 59%
11:00 +8°C° 0 mm 6 mps 737 mmHg 59%
12:00 +8°C° 0 mm 5 mps 737 mmHg 58%
13:00 +8°C° 0 mm 5 mps 737 mmHg 58%
14:00 +8°C° 0 mm 5 mps 737 mmHg 58%
15:00 +9°C° 0 mm 5 mps 737 mmHg 58%
16:00 +9°C° 0 mm 5 mps 738 mmHg 58%
17:00 +8°C° 0 mm 4 mps 738 mmHg 64%
18:00 +8°C° 0 mm 3 mps 738 mmHg 71%
19:00 +7°C° 0 mm 2 mps 738 mmHg 78%
20:00 +6°C° 0 mm 2 mps 738 mmHg 80%
21:00 +6°C° 0 mm 2 mps 739 mmHg 83%
22:00 +5°C° 0 mm 2 mps 739 mmHg 85%
23:00 +5°C° 0 mm 2 mps 739 mmHg 85%
Show more

We Need Your Consent

Meteoprog and our Service Providers may store and access personal data such as cookies, device identifiers or other similar technologies on your device and process such data to personalise content and ads, as well as provide social media features and to analyse the traffic.

  • Store and/or access information on your device

    Cookies, device identifiers or other information can be stored or accessed on your device for the purposes indicated above.

  • Personalised ads and content, ad and content measurement, audience insights, and products development

    Ads and content can be personalised based on a profile. More data can be added to better personalise ads and content. Ad and content performance can be measured. Insights about the audience who saw the ads and content can be derived. Such data can be used to develop or improve user’s experience, systems and software.

By clicking ‘I Agree’ you will allow the use of indicated cookies, device identifiers, web beacons or other similar technologies. Your settings can be changed in the browser on your device.

For certain purposes, legitimate interests may be relied on, rather than consent. You can read more about this in our Privacy and Cookie Policy.